KD8PH Weather Reports


Display with metric or nautical units.
time (UTC)temp
F
wind
direction
speed
MPH
gust
MPH
rain 1hr
in
rain 24hr
in
rain mn
in
humidity
%
barometer
mb
20260506134535 68 225 7.0 13.0 0.00 0.00 0.00 86 1012.2
20260506133545 69 248 6.0 15.0 0.00 0.00 0.00 86 1012.1
20260506132537 69 248 7.0 15.0 0.00 0.00 0.00 84 1011.1
20260506131537 69 248 9.0 18.0 0.00 0.00 0.00 83 1011.8
20260506130541 69 248 8.0 16.0 0.00 0.00 0.00 83 1011.7
20260506125538 69 225 6.0 17.0 0.00 0.00 0.00 83 1011.6
20260506124536 70 225 7.0 18.0 0.00 0.00 0.00 82 1011.4
20260506123543 70 248 8.0 17.0 0.00 0.00 0.00 82 1011.2
20260506122548 70 248 9.0 17.0 0.00 0.00 0.00 81 1010.8
20260506121545 70 248 7.0 19.0 0.00 0.00 0.00 81 1010.9
20260506120553 70 225 7.0 16.0 0.00 0.00 0.00 81 1010.7
20260506115547 70 225 7.0 13.0 0.00 0.00 0.00 81 1010.4
20260506114542 70 248 5.0 12.0 0.00 0.00 0.00 80 1010.2
20260506113537 70 225 5.0 16.0 0.00 0.00 0.00 80 1010.1
20260506112544 70 248 5.0 10.0 0.00 0.00 0.00 79 1010.0
20260506111540 70 225 6.0 16.0 0.00 0.00 0.00 79 1009.7
20260506110549 70 225 8.0 14.0 0.00 0.00 0.00 79 1009.5
20260506105537 70 225 8.0 15.0 0.00 0.00 0.00 78 1009.7
20260506104541 70 248 9.0 19.0 0.00 0.00 0.00 78 1009.8
20260506103536 70 225 5.0 12.0 0.00 0.00 0.00 78 1009.7
20260506102536 70 225 5.0 10.0 0.00 0.00 0.00 77 1009.7
20260506101538 70 225 6.0 14.0 0.00 0.00 0.00 77 1009.4
20260506100556 70 248 3.0 9.0 0.00 0.00 0.00 76 1009.2
20260506095540 70 225 6.0 15.0 0.00 0.00 0.00 76 1009.1
20260506094538 71 225 6.0 12.0 0.00 0.00 0.00 75 1009.1
20260506093549 71 225 6.0 12.0 0.00 0.00 0.00 75 1009.3
20260506092553 71 225 7.0 13.0 0.00 0.00 0.00 74 1009.0
20260506091535 71 248 5.0 13.0 0.00 0.00 0.00 73 1009.3
20260506090546 71 248 2.0 9.0 0.00 0.00 0.00 73 1009.2
20260506085536 71 248 5.0 13.0 0.00 0.00 0.00 72 1009.1
20260506084534 71 225 4.0 10.0 0.00 0.00 0.00 72 1009.1
20260506083536 71 248 4.0 10.0 0.00 0.00 0.00 72 1009.0
20260506082537 71 225 5.0 12.0 0.00 0.00 0.00 72 1008.9
20260506081539 71 248 6.0 11.0 0.00 0.00 0.00 71 1008.9
20260506080534 71 225 5.0 10.0 0.00 0.00 0.00 71 1009.1
20260506072543 72 225 5.0 16.0 0.00 0.00 0.00 71 1008.8
20260506071614 72 225 7.0 14.0 0.00 0.00 0.00 71 1008.8
20260506070538 72 225 8.0 16.0 0.00 0.00 0.00 71 1008.8
20260506061552 72 225 6.0 16.0 0.00 0.00 0.00 70 1009.2
20260506060535 72 225 9.0 21.0 0.00 0.00 0.00 69 1009.3
20260506050538 72 248 4.0 9.0 0.00 0.00 0.00 67 1010.0
20260506044535 72 225 5.0 15.0 0.00 0.00 0.00 66 1009.9
20260506043558 72 225 5.0 9.0 0.00 0.00 0.00 66 1009.9
20260506042536 72 225 5.0 11.0 0.00 0.00 0.00 65 1010.1
20260506041536 72 225 5.0 7.0 0.00 0.00 0.00 65 1010.2
20260506040538 72 225 4.0 8.0 0.00 0.00 0.00 64 1010.3
20260506035538 72 248 3.0 6.0 0.00 0.00 0.00 63 1010.2
20260506034546 72 225 2.0 4.0 0.00 0.00 0.00 64 1010.1
20260506033536 72 225 3.0 8.0 0.00 0.00 0.00 63 1010.1
20260506032537 72 225 3.0 5.0 0.00 0.00 0.00 63 1010.1
20260506031535 72 225 4.0 7.0 0.00 0.00 0.00 63 1009.9
20260506030555 72 225 5.0 9.0 0.00 0.00 0.00 62 1009.9
20260506025540 72 225 5.0 8.0 0.00 0.00 0.00 62 1009.8
20260506024538 72 225 4.0 11.0 0.00 0.00 0.00 61 1009.8
20260506023537 73 225 6.0 9.0 0.00 0.00 0.00 61 1009.6
20260506022538 72 225 4.0 7.0 0.00 0.00 0.00 61 1009.6
20260506021536 73 225 4.0 8.0 0.00 0.00 0.00 62 1009.7
20260506020536 73 225 5.0 8.0 0.00 0.00 0.00 61 1009.9
20260506015535 73 225 4.0 8.0 0.00 0.00 0.00 61 1010.0
20260506014557 73 225 4.0 9.0 0.00 0.00 0.00 61 1009.8
20260506013544 73 203 9.0 14.0 0.00 0.00 0.00 62 1009.7
20260506012549 73 225 8.0 15.0 0.00 0.00 0.00 60 1009.6
20260506011540 73 225 7.0 13.0 0.00 0.00 0.00 61 1009.6
20260506010543 73 225 9.0 14.0 0.00 0.00 0.00 60 1009.4
20260506005546 73 203 7.0 13.0 0.00 0.00 0.00 61 1009.5
20260506004534 73 203 8.0 16.0 0.00 0.00 0.00 60 1009.6
20260506003546 73 203 10.0 15.0 0.00 0.00 0.00 61 1009.3
20260506002540 73 225 7.0 13.0 0.00 0.00 0.00 59 1009.4
20260506001536 73 225 9.0 13.0 0.00 0.00 0.00 61 1009.4
20260506000543 73 225 9.0 13.0 0.00 0.00 0.00 59 1009.6
20260505235540 73 203 8.0 14.0 0.00 0.00 0.00 58 1009.6
20260505234537 73 225 8.0 12.0 0.00 0.00 0.00 58 1009.7
20260505233537 73 225 8.0 15.0 0.00 0.00 0.00 59 1009.9
20260505232540 73 225 9.0 15.0 0.00 0.00 0.00 57 1010.0
20260505231541 74 225 9.0 16.0 0.00 0.00 0.00 57 1010.2
20260505230537 74 225 10.0 16.0 0.00 0.00 0.00 58 1010.3
20260505225540 74 225 8.0 14.0 0.00 0.00 0.00 57 1010.4
20260505224535 74 225 9.0 17.0 0.00 0.00 0.00 57 1010.4
20260505223536 74 225 10.0 15.0 0.00 0.00 0.00 57 1010.4
20260505222539 74 225 9.0 14.0 0.00 0.00 0.00 56 1010.4
20260505221548 74 225 9.0 15.0 0.00 0.00 0.00 55 1010.2
20260505220541 75 225 9.0 13.0 0.00 0.00 0.00 56 1010.2
20260505215552 74 225 13.0 22.0 0.00 0.00 0.00 54 1010.3
20260505214537 74 225 11.0 18.0 0.00 0.00 0.00 55 1010.2
20260505213538 74 225 8.0 14.0 0.00 0.00 0.00 53 1010.3
20260505212539 74 225 10.0 14.0 0.00 0.00 0.00 53 1010.2
20260505211536 74 203 10.0 16.0 0.00 0.00 0.00 53 1010.1
20260505210537 74 225 10.0 16.0 0.00 0.00 0.00 54 1010.1
20260505205536 74 203 9.0 16.0 0.00 0.00 0.00 53 1009.9
20260505204548 74 225 8.0 14.0 0.00 0.00 0.00 52 1010.0
20260505203540 74 225 11.0 18.0 0.00 0.00 0.00 50 1009.9
20260505202554 74 203 13.0 20.0 0.00 0.00 0.00 51 1010.2
20260505201535 74 225 12.0 19.0 0.00 0.00 0.00 53 1010.0
20260505200534 74 225 9.0 16.0 0.00 0.00 0.00 51 1009.9
20260505195538 75 248 5.0 10.0 0.00 0.00 0.00 52 1010.6
20260505194536 76 248 6.0 11.0 0.00 0.00 0.00 48 1011.0
20260505193543 75 248 4.0 12.0 0.00 0.00 0.00 48 1011.0
20260505192542 75 225 10.0 16.0 0.00 0.00 0.00 45 1011.3
20260505191546 76 315 3.0 7.0 0.00 0.00 0.00 47 1011.4
20260505190550 75 248 5.0 13.0 0.00 0.00 0.00 45 1011.5
20260505185543 74 225 6.0 13.0 0.00 0.00 0.00 46 1011.9
20260505184546 74 225 6.0 13.0 0.00 0.00 0.00 44 1011.9
20260505183539 73 225 10.0 21.0 0.00 0.00 0.00 50 1011.9
20260505182540 74 225 9.0 18.0 0.00 0.00 0.00 47 1011.8
20260505181539 74 225 10.0 18.0 0.00 0.00 0.00 47 1011.9
20260505180534 74 225 9.0 15.0 0.00 0.00 0.00 46 1012.1
20260505175536 74 248 5.0 16.0 0.00 0.00 0.00 47 1012.1
20260505174553 73 225 9.0 15.0 0.00 0.00 0.00 47 1012.2
20260505173546 73 225 9.0 17.0 0.00 0.00 0.00 44 1012.5
20260505172547 74 225 10.0 16.0 0.00 0.00 0.00 44 1012.6
20260505171534 73 225 9.0 18.0 0.00 0.00 0.00 44 1012.6
20260505170539 73 225 10.0 17.0 0.00 0.00 0.00 52 1012.5
20260505165533 73 225 5.0 14.0 0.00 0.00 0.00 52 1012.6
20260505164547 72 225 4.0 10.0 0.00 0.00 0.00 54 1012.8
20260505163555 72 225 6.0 14.0 0.00 0.00 0.00 56 1012.7
20260505162544 71 225 8.0 15.0 0.00 0.00 0.00 57 1012.8
20260505161551 71 225 4.0 12.0 0.00 0.00 0.00 56 1012.9
20260505160533 71 225 2.0 7.0 0.00 0.00 0.00 58 1012.7
20260505152547 69 248 2.0 4.0 0.00 0.00 0.00 60 1012.9
20260505151533 69 248 2.0 7.0 0.00 0.00 0.00 63 1013.1
20260505150538 68 180 1.0 4.0 0.00 0.00 0.00 66 1013.1
20260505140537 65 225 5.0 10.0 0.00 0.00 0.00 69 1013.5